Starlink 11602

operational
NORAD ID: 63183 Int'l Des: 2025-048 Owner: SPXS Country: US Constellation: starlink
LEOCIRCULAR

About Starlink 11602

Description loading...

Live Position

Loading 3D Globe...

Upcoming Passes

Altitude History

Altitude vs Time

uPlot chart will show altitude changes over time

Two-Line Element Set

1 63183U 25048A 25303.70010265 .00300470 00000-0 22596-2 0 9994
2 63183 42.9963 23.7526 0001318 3.7969 356.2909 15.70859869 37695
Epoch: Oct 30, 2025 • Age: 19 hours

Current Status

Altitude 355.5 km
Velocity 7.70 km/s
Sub-Earth Point 24.84°N, 46.31°W
Launch Date Mar 13, 2025
Age 0.6 years
Type internet

Technical Details

Classification Payload
Mass 960.00 kg
Dry Mass 910.00 kg
Total Mass 960.00 kg
Length 0.30 m
Diameter 4.10 m
Span 29.00 m
Shape Box + pan
Manufacturer SPXS
Bus Type Starlink V2MD
Phase Status In Orbit
Owner/State SPXS/US

Large Constellations

Loading constellations...